Theta_e
340 340 340 340 339 339 341 340 339 339 339 339 338 338 337 338 338 337 335 334 335 337 335 334 335 335 335 334 334 334 335 335 335 334 330 327 327 326 326 326 325 324 322 321 321 321 320 321 322 322 324 326 326 325 323 321 321 320 319 319 320 319 318 319 320 321 322 322 322 322 322 323 323 322 322 324 325 325 325 326 326 327 329 332 332
340 340 340 340 340 339 341 341 340 340 340 339 339 338 338 338 339 337 335 334 336 337 335 334 335 334 334 334 333 333 333 333 334 334 330 328 327 326 326 325 324 322 320 318 317 317 316 315 315 314 315 317 318 319 318 316 315 314 313 312 310 309 311 312 313 315 316 317 318 318 318 318 319 319 318 320 322 323 323 324 325 325 327 329 330
339 339 339 340 340 339 340 341 340 340 340 339 339 339 338 338 338 336 335 335 335 336 334 334 334 333 332 332 332 332 331 331 331 332 331 329 327 326 325 324 322 321 317 314 311 310 309 308 307 307 307 307 310 314 315 314 313 313 312 312 309 306 309 312 312 312 311 311 312 313 312 312 314 312 313 316 318 321 322 322 323 323 325 326 327
340 340 340 340 339 340 341 341 340 340 340 340 340 339 338 338 338 336 336 336 335 335 334 333 332 330 330 330 329 330 329 329 329 329 328 328 327 326 324 322 320 318 315 312 307 302 301 301 300 299 300 300 303 310 315 313 313 314 313 314 313 311 312 313 313 313 312 312 311 310 310 311 312 308 307 312 314 318 321 321 322 322 323 323 324
342 342 341 341 341 341 341 341 340 340 340 340 339 339 338 337 336 335 335 335 335 334 333 332 331 329 328 328 327 327 327 327 327 326 325 325 324 323 322 319 317 316 313 311 307 301 297 298 299 297 297 296 300 308 313 314 313 313 313 314 314 313 313 313 313 313 313 314 312 310 311 312 312 306 305 310 312 314 317 318 319 320 321 321 321
341 341 342 341 341 341 340 340 340 340 339 339 338 337 337 335 335 335 334 334 334 333 332 330 329 328 327 326 325 324 324 324 323 323 322 322 321 320 318 316 314 312 311 310 308 304 300 300 302 301 300 296 299 306 311 313 313 312 310 311 312 311 312 312 313 313 311 313 313 311 311 313 311 308 309 311 310 311 313 313 313 314 316 317 317
340 341 341 340 340 341 340 340 340 339 338 337 336 335 335 335 335 335 334 333 332 332 331 329 327 326 325 324 323 323 322 321 321 320 319 318 317 316 313 311 309 308 308 308 308 308 304 303 305 306 305 300 299 303 305 306 309 310 308 308 309 310 311 312 312 312 310 311 312 311 311 312 311 311 311 311 310 311 312 312 312 311 311 310 313
340 340 340 339 340 340 339 339 338 338 337 335 335 334 334 334 334 334 335 333 331 331 329 327 325 324 323 322 322 321 320 319 318 317 316 315 313 311 310 309 310 308 307 307 307 309 308 307 307 307 308 304 301 302 300 301 304 307 308 308 308 309 310 312 312 312 311 311 312 312 311 311 311 311 310 311 311 311 311 313 313 311 310 309 311
339 340 339 338 338 338 337 337 336 336 335 335 334 333 334 334 333 333 334 333 331 329 327 325 323 321 321 320 319 319 318 317 316 315 314 313 312 310 308 308 309 308 307 306 305 306 307 308 308 307 308 306 304 304 302 300 301 303 307 307 307 307 308 311 312 312 312 312 312 312 311 310 310 311 311 312 312 310 310 313 313 312 310 310 310
338 339 338 337 337 337 336 336 336 335 334 333 332 331 332 333 332 330 332 333 331 329 326 323 321 319 318 317 317 316 315 315 314 313 312 312 312 311 310 308 307 307 306 305 304 305 306 307 308 307 308 307 306 307 304 303 301 300 304 306 306 306 307 309 311 310 311 312 312 312 311 310 310 311 311 312 312 311 310 311 313 313 312 311 311
337 337 337 336 337 336 336 336 335 335 335 335 333 332 330 330 329 327 331 332 329 327 324 321 319 317 316 315 315 315 314 314 313 312 312 311 311 311 311 310 309 308 306 304 304 306 306 306 307 306 307 307 307 307 306 306 303 300 303 305 305 306 307 308 309 309 310 311 311 311 310 309 310 310 311 312 311 310 310 311 312 312 312 312 312
337 336 337 336 336 336 336 335 335 335 335 335 334 332 329 328 328 327 330 330 325 324 322 319 317 315 314 313 313 313 312 312 312 311 311 310 310 310 310 310 310 310 309 308 306 306 307 306 305 305 305 306 307 307 307 307 304 301 303 304 303 304 305 307 308 308 309 310 311 310 309 309 309 310 310 311 310 309 310 311 311 311 311 312 311
337 336 336 336 336 336 335 334 334 333 334 333 332 330 326 325 327 328 330 329 324 322 321 318 316 315 315 313 311 311 311 311 311 310 310 309 309 309 309 310 310 309 309 310 308 307 307 305 304 303 302 304 306 306 306 307 306 304 305 305 303 303 305 305 306 308 309 310 310 310 309 308 308 309 309 309 309 308 309 310 310 310 310 311 311
337 336 336 336 336 335 334 333 332 332 332 331 329 327 324 323 325 327 330 329 325 322 320 318 319 318 317 315 313 311 310 310 310 310 309 308 309 309 308 308 309 309 308 308 308 307 306 305 304 304 303 303 305 305 305 306 306 306 306 306 304 303 304 305 305 307 309 309 309 309 308 308 308 308 308 308 308 308 309 309 309 309 310 310 310
336 336 335 335 334 333 332 331 330 330 330 329 328 327 326 325 324 325 328 329 327 323 320 321 325 324 320 320 318 315 313 311 309 308 308 308 308 309 309 309 309 308 307 307 306 306 306 306 306 306 306 305 305 305 305 305 306 306 306 306 305 303 304 304 305 307 309 308 308 308 307 307 307 308 307 307 307 308 308 308 308 309 309 309 309
335 334 334 333 332 331 330 330 329 329 329 328 328 326 325 325 324 323 323 325 327 326 324 325 328 327 325 326 322 319 320 317 312 309 308 308 308 307 307 309 308 307 306 305 305 305 304 306 306 306 306 305 305 305 305 305 305 305 304 305 306 304 304 303 304 306 308 308 307 307 307 307 307 307 306 306 307 307 308 308 308 308 308 308 308
333 332 331 331 330 329 329 328 327 327 327 327 326 324 322 323 324 323 321 322 324 324 325 325 325 322 322 326 325 325 324 317 313 312 310 309 309 307 306 308 308 307 306 304 304 304 303 305 306 305 305 305 305 305 305 304 304 304 304 305 305 304 302 301 303 306 307 307 307 307 307 306 306 306 306 306 307 307 307 307 307 307 307 307 307
331 330 329 329 328 327 327 326 325 325 325 324 323 321 321 320 321 321 318 318 318 319 320 319 319 317 315 319 322 325 322 316 316 316 310 307 307 307 306 306 306 306 306 305 305 304 302 304 306 305 305 304 304 305 304 304 304 303 304 305 305 303 301 300 303 305 305 306 306 306 306 306 305 306 306 306 306 306 305 305 306 306 306 306 306
329 329 329 327 327 326 324 323 323 323 322 322 321 321 321 321 321 319 316 315 314 314 314 314 314 313 311 313 315 317 318 317 318 318 314 311 308 307 305 305 305 304 303 304 305 305 304 305 305 305 305 304 304 304 303 303 303 302 303 304 303 302 300 300 303 304 304 304 305 305 305 305 305 305 306 305 304 304 304 304 305 305 304 304 305
327 327 326 325 324 323 320 319 319 320 320 320 320 319 319 321 321 321 319 316 314 312 312 311 311 310 310 311 310 311 313 314 315 315 316 317 314 310 308 308 308 306 305 304 305 305 306 306 306 305 304 303 303 303 302 302 302 302 303 303 302 301 300 302 303 303 302 303 304 304 305 304 305 305 305 304 303 303 303 304 304 304 304 304 304
325 324 323 322 321 319 317 318 318 319 319 317 318 317 317 318 319 319 318 317 315 314 314 313 312 312 313 312 310 310 311 311 312 312 314 317 316 313 311 311 311 310 308 305 305 306 307 306 305 304 304 302 302 301 301 301 302 303 303 302 301 301 301 302 302 302 302 302 302 303 304 304 304 305 304 304 303 303 302 303 303 303 304 304 304
324 323 322 320 319 318 318 318 318 318 317 315 315 315 315 315 316 316 316 315 315 316 316 315 314 314 314 313 312 312 312 313 312 312 312 314 315 313 312 313 315 313 310 306 305 307 306 305 304 303 303 302 301 301 301 302 303 303 303 302 301 301 302 302 302 303 302 301 301 302 304 305 304 304 304 303 303 302 302 302 303 303 303 303 303
323 321 320 318 318 318 318 317 316 315 314 313 313 312 312 312 313 313 313 313 313 314 313 313 312 312 312 312 312 312 312 313 312 311 312 313 315 314 311 310 314 313 309 306 305 305 304 303 302 302 302 301 301 302 302 303 303 303 303 302 301 301 302 303 303 303 302 301 301 302 303 304 304 303 303 303 302 302 302 302 302 302 302 302 302
322 320 319 319 318 318 317 315 314 312 311 311 310 310 310 310 310 311 311 312 312 312 311 311 311 310 310 310 310 310 310 310 310 310 310 310 312 314 311 308 312 311 308 307 307 305 302 302 302 302 301 301 301 302 302 302 302 303 303 301 301 301 302 303 303 302 302 302 302 302 302 302 302 303 303 302 302 302 302 302 301 301 301 301 301
321 320 320 320 319 318 316 315 313 311 310 310 310 310 310 310 310 311 312 312 312 311 311 310 310 309 309 309 309 309 309 309 308 308 309 308 308 310 309 309 311 309 307 307 307 304 301 302 302 301 301 302 302 302 302 302 303 303 302 301 301 302 302 303 302 302 302 302 302 302 301 301 301 301 301 301 302 302 301 301 300 300 300 300 300
322 321 320 318 317 317 316 314 312 311 310 310 310 309 309 308 309 309 310 311 310 310 310 310 310 309 309 309 308 308 308 308 307 307 307 307 307 308 308 309 310 306 305 306 305 303 302 302 302 302 301 302 302 302 303 303 303 303 302 301 301 302 302 302 302 302 302 302 302 302 301 301 301 300 300 300 301 301 301 300 300 300 300 300 300
322 320 318 317 317 316 315 314 312 311 310 309 309 309 308 307 307 308 308 309 309 309 309 309 309 309 308 308 307 307 307 307 307 306 306 306 306 305 306 309 311 308 307 307 304 303 302 303 303 302 302 303 302 303 303 303 303 302 302 301 301 301 302 302 302 302 302 302 302 302 301 301 301 300 300 300 301 301 300 300 300 300 299 299 299
321 319 317 317 317 315 314 313 311 310 309 309 309 309 308 307 306 307 308 308 308 308 308 308 308 308 307 307 306 306 306 306 306 305 305 305 305 305 304 306 309 311 310 310 307 304 303 303 303 303 303 303 303 303 303 303 303 302 302 301 301 301 302 302 302 302 302 302 303 302 301 301 301 300 300 300 300 300 300 300 300 299 299 298 299
320 318 318 317 315 314 313 312 311 310 310 310 310 309 307 306 305 306 307 308 308 308 308 308 307 307 306 306 305 305 305 305 305 305 305 304 304 305 304 304 306 309 310 311 310 305 304 304 303 303 303 303 303 303 303 303 302 302 301 301 301 301 301 302 301 302 302 303 302 302 301 301 300 300 300 300 300 300 300 300 300 299 298 298 298
320 318 317 315 314 313 312 311 310 310 310 310 309 308 307 306 307 307 308 308 308 308 308 308 307 306 306 306 305 305 305 304 304 304 304 305 304 304 304 304 304 305 307 309 309 306 304 304 304 304 304 303 303 303 303 303 302 302 301 301 301 301 301 301 301 302 302 303 302 302 301 301 301 300 300 300 300 300 300 300 299 298 298 298 298
319 317 316 314 313 313 312 311 310 310 310 309 309 309 308 308 308 308 308 308 308 307 307 307 307 306 306 305 305 304 305 304 304 304 303 303 303 303 304 304 303 303 304 305 307 306 304 305 304 304 304 304 303 303 303 302 302 301 301 301 301 301 301 301 301 302 302 302 302 302 301 301 300 300 300 300 300 300 300 299 299 298 298 297 297
318 316 315 314 313 312 311 311 310 310 309 309 309 309 308 308 307 307 308 308 307 307 307 307 307 307 307 306 306 305 305 304 304 304 303 303 303 303 303 303 303 303 302 303 306 306 305 304 304 304 304 304 303 303 303 302 301 301 300 301 301 301 301 301 301 302 302 302 302 302 301 301 300 300 300 300 300 300 299 299 299 298 298 297 297
318 316 315 314 313 312 311 310 310 309 309 309 309 308 308 307 307 307 307 307 307 307 306 306 306 306 306 306 306 305 305 304 304 304 303 303 303 303 303 303 303 303 302 303 304 305 305 304 304 304 304 303 303 303 303 302 301 300 300 300 300 300 300 301 302 302 302 302 302 302 301 301 300 300 301 300 300 300 299 299 298 298 298 298 298
317 316 315 314 313 312 311 310 309 309 309 309 309 308 308 308 307 307 307 307 306 306 306 306 305 305 305 305 305 305 304 304 304 303 303 303 303 302 302 302 303 302 302 303 304 305 305 304 304 304 304 303 303 303 302 302 301 300 300 300 300 300 300 301 302 302 302 302 302 302 301 301 300 300 300 300 300 300 299 299 299 299 299 298 298
317 316 315 314 312 311 310 309 309 309 309 309 309 309 308 307 307 307 307 306 306 306 306 306 306 305 305 305 305 305 305 304 303 303 304 304 303 302 302 302 302 302 302 303 304 304 304 304 304 304 303 303 303 302 302 301 300 300 300 299 299 299 300 301 301 302 302 302 302 302 301 301 300 300 300 300 300 300 299 299 298 299 299 298 297
316 315 314 313 312 311 310 309 309 309 309 309 309 309 308 307 306 306 306 306 306 306 306 305 305 306 306 306 305 305 305 304 304 303 304 304 303 302 302 302 302 302 302 303 304 303 303 303 303 303 303 303 302 302 301 301 300 300 299 299 299 299 300 301 301 301 302 302 302 301 301 301 301 300 300 300 300 300 299 299 299 299 298 297 297
316 315 314 313 312 311 310 309 309 309 309 309 309 308 307 306 306 306 306 306 306 306 305 305 306 306 306 306 305 305 305 304 304 304 304 304 303 301 301 302 301 301 302 303 303 302 302 303 302 302 302 302 302 302 301 300 300 300 299 298 299 299 300 300 301 301 302 302 301 301 301 301 300 300 300 300 300 299 299 298 298 298 297 296 296
315 315 313 313 312 311 310 309 309 309 309 309 308 308 307 307 306 306 306 306 306 306 305 305 306 306 306 305 305 305 305 304 303 303 302 303 303 301 300 301 301 301 302 302 302 302 301 301 302 302 302 302 301 301 300 300 300 299 298 298 299 299 300 300 301 301 301 301 301 301 301 301 300 300 300 300 300 299 299 298 298 297 296 296 295
315 314 313 313 312 311 310 310 309 308 308 308 308 307 307 307 306 305 305 306 306 305 305 305 306 306 305 304 304 304 303 303 302 301 302 302 302 301 300 300 300 301 301 301 301 301 301 301 301 302 302 301 301 300 300 300 299 298 298 299 299 299 300 300 300 301 301 301 301 301 301 301 301 300 300 300 300 299 299 298 297 296 296 295 295
315 314 313 313 312 311 310 310 309 308 308 307 307 307 307 307 306 306 305 305 305 305 305 305 306 306 305 303 302 302 302 302 300 298 300 302 301 300 299 299 300 300 300 300 300 300 300 300 301 301 301 301 301 300 299 299 299 298 298 299 299 300 300 300 300 301 301 301 301 301 301 301 301 300 300 300 300 299 298 298 297 296 296 295 295
315 314 313 312 312 311 310 310 309 308 307 307 307 307 307 307 307 306 305 305 305 305 305 305 305 305 303 302 300 299 299 298 296 295 297 300 300 299 297 297 298 298 299 298 298 299 299 299 301 301 301 300 300 299 299 299 298 298 298 299 299 299 299 300 300 301 301 301 301 302 302 301 300 299 299 300 299 299 298 298 297 296 296 295 294
315 314 312 312 312 311 310 310 309 307 307 307 307 307 307 307 307 306 306 305 305 305 305 305 305 304 302 301 298 296 294 293 293 293 294 295 296 295 294 295 295 296 296 296 297 298 298 298 300 301 300 300 299 298 299 298 298 298 298 299 299 299 299 300 300 301 301 301 301 302 302 300 299 299 299 299 299 299 298 298 297 296 296 295 295
314 313 312 312 312 311 310 310 309 307 307 307 307 307 307 308 307 307 306 306 305 305 304 305 305 304 302 300 295 291 292 293 293 293 293 294 295 296 296 296 296 296 295 294 295 296 297 297 299 300 299 299 298 298 298 298 297 298 298 298 298 298 299 299 300 300 301 301 302 303 302 300 298 298 299 299 299 299 299 298 297 297 296 295 295
314 313 312 312 311 311 311 310 309 308 307 307 307 307 307 307 307 307 307 306 305 305 305 305 305 303 300 298 294 293 295 296 296 296 296 297 298 299 299 299 299 299 298 296 296 296 296 297 298 299 299 299 298 298 298 298 298 298 298 298 298 298 298 299 300 300 300 301 302 303 302 300 298 298 299 299 299 299 299 299 298 297 296 296 295
313 312 312 312 311 311 311 310 309 308 308 307 307 306 306 307 307 307 307 306 306 306 305 305 305 304 301 300 300 300 300 299 300 300 300 300 301 301 301 301 301 301 300 299 298 297 297 297 298 298 299 299 299 299 299 299 298 298 298 298 297 298 299 300 300 300 300 300 302 302 301 299 299 298 298 299 299 299 299 299 298 298 297 296 295
312 312 312 311 311 311 311 311 310 309 308 307 306 306 306 307 307 307 307 307 307 307 306 305 305 305 304 303 304 303 300 298 300 302 302 301 302 302 302 302 302 302 302 302 300 298 298 299 299 299 299 299 300 300 299 299 299 299 298 298 297 298 299 300 300 300 300 300 302 301 299 299 299 298 298 298 298 298 299 299 299 298 297 296 295
312 312 312 311 311 311 311 311 310 310 309 308 307 306 305 306 307 307 308 308 307 307 307 306 306 305 305 305 304 303 301 300 300 301 301 301 302 303 304 303 303 303 303 303 301 299 299 299 299 299 300 300 300 301 300 300 299 298 298 298 298 299 300 300 299 299 299 300 301 301 300 299 299 299 298 298 298 298 298 298 299 298 297 296 295
312 312 312 312 311 311 311 311 311 310 309 308 307 306 305 305 306 307 308 308 307 307 307 307 307 306 305 305 305 304 304 303 301 299 297 299 301 303 304 304 304 304 304 303 302 300 299 299 299 299 301 301 301 301 301 300 299 298 298 299 300 300 300 300 299 299 299 299 300 300 300 299 299 299 299 298 298 298 298 298 298 298 297 296 295
312 312 312 312 311 310 310 310 311 310 309 308 308 307 305 305 306 306 307 307 306 307 307 306 307 307 305 305 305 305 304 304 302 298 294 296 300 303 304 303 304 304 304 303 302 300 298 298 299 301 302 302 301 301 301 300 300 299 299 300 300 300 300 299 299 299 299 299 300 300 300 299 299 299 299 298 298 298 298 298 298 298 297 296 295
313 312 312 311 311 309 309 310 310 310 308 306 306 305 303 304 305 306 306 306 306 306 307 307 306 306 305 304 304 305 304 303 303 298 294 295 300 303 303 303 304 304 303 302 301 299 297 299 301 302 302 302 301 301 301 300 300 299 300 300 300 300 300 299 299 299 299 299 299 299 299 299 299 299 299 298 298 298 298 298 298 298 297 296 295
313 312 311 311 309 308 309 309 309 309 307 305 305 304 301 301 303 305 305 306 305 306 307 307 306 306 306 304 303 304 304 303 303 300 294 295 300 303 302 303 304 303 302 302 300 297 297 300 302 302 302 302 300 301 301 300 300 300 300 300 300 300 300 300 300 299 299 299 299 299 299 299 300 299 298 298 298 298 297 298 298 298 298 296 295
Wind_Speed
7 6 5 5 6 6 5 5 4 6 5 3 4 5 3 2 1 0 1 3 4 2 2 3 5 4 4 5 5 7 7 9 11 9 10 13 14 13 12 12 13 13 12 12 12 11 11 11 10 8 8 8 10 11 12 12 13 14 14 14 14 16 16 15 15 16 17 19 19 19 18 19 21 20 18 19 20 20 21 21 21 20 18 18 17
6 5 4 5 6 6 5 5 5 5 4 2 3 4 3 4 2 2 2 3 5 4 2 3 4 4 5 7 8 7 6 8 10 8 7 12 12 12 12 13 14 14 14 14 13 12 13 13 13 12 11 10 10 12 14 14 15 16 16 16 15 16 17 17 17 17 17 18 20 20 19 18 19 21 20 18 18 19 20 20 21 20 18 17 17
7 7 6 6 7 8 7 7 7 6 5 3 3 3 3 4 3 3 3 3 5 6 4 5 5 6 7 8 8 8 8 9 10 7 6 8 9 11 12 13 13 14 15 15 14 13 13 13 13 13 12 12 12 13 15 16 16 17 17 18 18 18 19 19 19 19 18 19 19 20 20 19 19 20 20 19 17 17 19 20 20 20 19 18 18
6 7 7 7 8 8 9 9 9 6 6 6 4 3 4 4 3 4 4 4 4 4 5 6 8 10 10 10 9 9 9 8 10 10 9 8 8 9 11 12 12 13 14 16 16 14 13 13 14 14 14 14 13 14 15 16 17 17 18 18 19 20 20 20 20 20 20 20 19 20 20 21 21 20 19 18 17 16 17 18 19 19 19 19 19
6 6 5 6 6 7 8 9 9 8 7 7 5 4 5 4 4 4 4 3 4 4 6 8 9 10 11 10 10 11 10 9 8 9 9 9 9 9 10 11 12 13 14 16 16 16 15 14 16 17 17 16 15 15 15 16 17 18 19 19 20 20 21 20 20 21 20 20 20 20 21 21 21 21 20 19 18 17 17 18 18 19 19 20 21
7 6 5 6 6 6 8 8 8 8 7 7 6 5 6 4 3 4 4 4 4 4 9 13 11 10 11 10 10 11 11 10 9 7 7 6 6 6 7 8 10 12 13 15 16 16 15 15 17 19 20 19 16 16 15 16 17 18 19 19 20 20 20 20 19 20 19 19 20 20 20 20 21 21 21 21 20 19 19 19 19 19 19 20 22
8 6 5 6 6 6 7 8 7 7 7 7 6 6 6 4 3 4 3 4 6 7 12 14 13 11 11 10 10 10 9 9 9 9 8 7 6 5 5 6 8 9 9 11 14 15 16 17 18 18 19 20 18 17 17 18 18 18 19 20 20 20 20 20 19 19 19 19 20 20 20 20 20 21 21 21 21 21 20 20 20 21 20 20 20
8 6 4 6 6 5 7 7 6 7 7 7 5 5 6 4 2 3 3 3 8 13 14 13 12 11 10 10 10 9 9 8 8 8 8 8 7 6 7 8 8 8 8 9 10 12 14 16 17 16 17 19 20 20 20 21 21 19 19 20 20 20 20 19 19 19 19 19 19 20 20 20 20 20 21 21 21 21 20 20 21 22 22 21 20
8 6 4 5 6 5 5 6 4 5 6 5 4 4 6 6 1 3 5 2 8 16 14 13 12 11 10 10 9 9 8 8 7 7 7 8 8 7 8 8 7 8 8 8 8 9 11 13 15 15 16 18 19 21 21 22 22 20 18 19 20 20 20 19 19 19 19 19 19 20 21 21 21 20 20 21 21 21 21 20 21 21 23 23 22
9 8 6 5 6 6 5 5 3 4 5 4 4 2 3 4 4 3 6 2 8 16 14 13 12 10 11 10 9 8 8 8 7 7 7 8 7 7 8 7 7 8 9 8 9 10 11 11 12 13 14 17 17 20 21 20 21 21 18 18 20 20 21 20 19 20 19 19 20 20 21 22 22 21 21 21 21 22 21 21 21 21 21 22 22
9 9 7 5 6 6 5 4 3 3 4 4 4 4 4 4 3 3 6 7 12 18 16 15 12 11 11 10 9 8 8 8 7 7 8 7 6 5 5 7 7 8 9 10 10 10 10 11 10 10 11 13 16 17 17 17 19 20 18 17 19 21 21 21 21 21 21 20 21 21 22 23 22 22 22 22 22 22 22 21 21 21 21 21 21
9 9 6 6 7 6 5 4 2 3 3 4 5 7 7 7 5 4 8 12 15 17 14 13 13 12 11 10 8 7 7 8 7 7 6 5 4 3 3 4 5 7 8 9 11 10 9 10 10 10 10 10 12 13 13 13 17 19 17 16 19 22 23 23 22 22 22 21 21 22 22 23 23 23 23 23 23 23 23 22 22 21 21 21 21
10 8 7 7 7 5 4 4 3 4 5 4 3 5 7 7 6 5 8 12 14 12 10 12 13 12 9 8 9 7 7 7 7 7 5 4 3 2 2 3 3 5 7 7 9 9 7 9 10 12 13 12 10 11 11 9 14 17 15 14 17 21 24 26 24 22 22 22 22 22 23 23 23 24 24 24 24 24 23 23 23 22 21 21 22
10 9 8 7 6 5 5 4 3 2 4 3 3 5 7 6 6 6 6 10 13 10 9 11 11 10 9 7 6 6 6 6 6 6 4 3 3 3 3 3 4 3 4 5 6 7 7 8 12 13 13 13 11 10 11 10 12 14 14 14 17 20 23 27 26 23 22 22 22 22 23 24 24 24 25 25 25 24 24 24 24 23 22 22 22
10 9 8 7 6 5 5 4 2 2 3 4 4 6 7 6 5 5 5 8 12 10 10 9 3 7 11 6 3 4 3 3 4 4 4 3 3 3 3 3 3 3 3 4 5 6 7 8 11 12 12 13 12 11 12 12 12 13 14 14 17 22 23 26 27 23 22 23 23 24 24 25 25 25 26 26 26 26 25 25 24 24 23 23 23
9 7 6 6 6 5 4 4 3 3 5 5 5 6 6 6 5 6 5 6 10 9 9 7 1 2 5 1 3 4 0 3 5 3 3 2 2 3 3 2 3 4 3 4 5 6 8 8 10 11 11 12 12 12 13 13 13 14 16 16 17 22 24 27 28 24 23 24 24 25 25 25 26 26 27 27 27 26 26 25 25 24 24 25 24
8 7 5 5 6 5 3 4 5 4 6 7 7 7 6 6 5 6 5 6 9 7 5 5 2 1 1 2 2 1 0 7 7 4 5 4 3 2 4 2 2 4 3 4 4 6 9 8 7 9 11 11 13 14 13 14 15 16 18 18 18 21 26 30 28 24 24 25 25 25 25 26 27 28 27 27 27 27 27 26 26 25 25 25 25
9 8 7 7 7 6 4 5 7 7 7 8 8 8 7 7 6 6 5 6 8 7 5 5 2 1 2 2 2 2 2 9 6 2 4 4 4 3 1 2 1 2 2 3 3 6 9 8 7 9 9 11 14 14 14 15 14 17 19 19 19 22 28 32 27 23 25 25 25 25 26 27 27 28 29 28 28 27 27 27 27 26 26 25 25
10 8 8 8 9 8 7 7 8 8 9 9 8 8 9 9 8 7 8 7 7 7 7 6 4 3 4 3 3 3 4 7 3 2 3 4 4 5 5 3 1 2 1 2 2 6 9 7 8 8 8 11 14 13 14 14 15 18 19 17 20 25 30 30 25 23 25 25 25 26 26 27 27 28 29 29 29 29 29 28 27 27 27 27 26
9 7 6 6 7 8 8 8 8 8 9 9 8 7 9 10 9 9 9 9 8 8 7 6 5 6 6 5 3 4 5 5 3 2 1 2 5 7 7 6 3 0 1 2 2 5 8 7 7 6 8 12 13 12 13 15 17 18 16 17 22 28 30 28 24 25 26 25 25 25 25 26 26 27 29 30 31 30 30 29 29 29 28 28 26
9 7 6 6 7 8 8 9 8 8 9 10 10 9 9 9 10 10 10 11 11 9 8 7 6 6 5 4 4 4 5 6 8 6 3 1 4 5 7 8 7 6 3 4 4 7 8 6 7 5 8 12 12 12 14 16 18 16 16 20 25 30 29 25 25 25 26 27 26 25 25 25 26 28 29 30 30 31 32 31 29 29 28 27 26
9 8 8 9 9 10 10 9 9 10 10 10 11 11 11 11 11 10 10 11 11 10 9 8 7 7 6 6 6 6 6 7 10 10 6 3 2 1 8 10 8 9 6 3 5 8 7 3 6 5 8 11 11 13 16 17 16 16 18 22 26 29 27 25 25 24 26 29 28 26 25 24 26 28 27 28 29 31 32 30 28 28 27 26 26
9 9 10 10 10 10 10 10 10 10 11 11 11 11 12 12 12 11 11 11 11 10 10 9 9 9 9 10 10 10 9 9 9 10 8 6 6 3 3 4 4 11 9 1 1 4 1 4 5 6 8 11 12 14 17 17 17 17 19 23 28 28 25 25 25 24 29 32 29 27 25 23 24 25 25 27 29 29 30 30 29 29 27 26 26
9 11 11 10 10 11 10 10 11 11 12 12 12 12 12 12 13 13 12 12 11 10 11 10 9 10 10 10 10 10 11 9 8 8 9 9 7 6 7 8 1 10 11 5 5 2 6 7 5 7 10 12 13 16 17 18 18 18 19 26 29 26 25 25 25 27 31 31 29 28 25 24 25 25 25 26 26 27 30 31 30 28 27 26 26
12 12 12 12 12 12 11 11 12 12 12 13 13 12 13 13 13 13 13 12 12 12 12 12 10 10 10 10 10 9 10 9 8 8 7 9 9 8 10 12 7 2 7 9 6 3 9 9 6 8 11 13 15 17 18 20 19 17 22 29 29 26 26 25 26 31 31 28 28 27 25 28 29 28 26 26 25 27 30 31 30 28 26 25 25
14 14 13 13 12 12 12 12 12 13 13 13 13 13 12 13 13 13 13 12 12 12 12 12 11 10 10 10 10 9 9 7 8 9 8 9 9 8 10 11 8 7 3 5 8 8 10 9 7 10 13 14 17 19 20 21 19 20 26 30 28 28 27 26 29 30 26 27 29 26 27 31 31 30 28 27 25 26 29 30 29 27 26 26 26
15 14 14 13 13 13 12 13 13 13 14 14 14 13 12 13 13 12 12 11 12 12 12 12 11 11 10 9 9 9 8 7 8 8 8 8 8 9 10 7 4 6 7 8 10 10 11 10 9 11 15 17 19 21 21 21 20 23 29 30 29 29 28 29 30 27 24 28 28 27 30 32 31 30 29 28 26 26 28 30 30 28 27 26 26
15 15 15 15 14 14 14 13 13 14 14 14 14 13 12 13 13 13 12 12 11 12 12 12 11 10 9 8 8 9 8 7 8 8 8 8 7 9 10 8 5 3 4 5 6 8 11 12 10 12 16 18 20 22 21 21 22 25 30 31 30 30 29 30 29 25 27 29 27 28 32 32 31 31 31 30 29 29 30 30 30 29 27 26 25
17 16 16 16 15 14 14 14 14 15 14 13 13 13 12 13 13 13 12 11 11 11 11 11 10 10 8 8 8 8 8 8 8 8 8 8 7 8 9 10 8 5 3 3 3 5 9 12 12 13 16 18 21 22 22 23 24 26 30 32 31 30 30 29 27 27 28 26 25 30 32 32 33 34 34 34 33 32 30 28 29 29 27 25 24
19 17 16 16 15 15 15 15 15 15 14 13 13 13 13 13 13 12 12 11 11 11 10 9 9 8 7 7 7 8 7 7 7 7 7 7 6 6 6 7 8 7 4 4 2 5 9 11 12 15 17 19 21 22 22 24 25 27 30 31 31 31 30 28 27 28 27 24 26 30 30 31 36 37 36 36 36 33 31 30 31 30 28 25 23
18 18 17 17 16 16 16 16 16 15 15 14 14 14 14 13 13 12 11 11 11 10 9 9 8 7 7 7 7 7 7 6 6 6 7 7 5 5 4 4 6 7 6 5 3 4 10 12 14 16 16 18 20 21 22 24 26 28 29 30 31 30 29 28 28 28 26 25 29 29 28 33 38 37 36 36 36 35 34 34 33 30 27 24 23
17 18 18 17 17 16 16 16 16 16 15 15 14 14 14 13 13 12 11 10 10 10 9 8 7 7 6 6 5 5 5 5 4 4 5 5 5 4 4 4 4 6 7 7 5 7 11 12 14 17 16 17 19 20 22 24 26 29 30 30 30 30 29 29 29 28 26 26 29 28 27 34 39 36 36 37 36 35 34 33 31 28 27 25 24
18 19 18 18 17 17 17 17 17 16 16 15 14 14 14 13 12 12 12 11 11 10 9 9 8 7 6 6 5 5 5 4 3 3 3 2 3 3 4 4 4 6 6 7 7 9 12 13 14 16 16 17 19 19 21 24 27 30 30 29 28 29 29 29 29 28 26 28 29 27 28 34 37 37 38 38 36 34 33 32 30 30 30 28 23
19 19 18 18 18 17 17 17 17 17 16 15 15 14 14 13 13 13 12 11 11 11 10 9 8 8 7 6 6 5 5 4 3 3 2 2 2 3 3 3 4 5 5 7 7 9 12 15 16 16 16 17 18 19 20 22 26 29 30 29 28 28 29 28 29 28 27 29 28 27 29 32 35 39 40 38 35 33 34 34 33 32 29 23 20
19 18 18 18 18 17 17 17 17 16 16 15 15 14 14 14 14 13 12 12 12 12 11 10 9 8 7 6 5 5 4 4 3 3 2 2 3 2 3 3 3 5 5 6 8 9 12 15 16 17 17 17 18 19 20 22 25 27 28 29 28 28 29 28 28 28 28 28 27 28 29 29 33 38 38 37 36 35 36 35 33 31 26 23 25
19 18 18 18 18 18 18 17 17 17 16 16 15 14 15 15 14 13 13 13 12 12 11 10 9 8 7 6 5 4 4 3 2 2 2 2 2 2 3 3 4 5 6 7 8 9 12 14 16 16 16 17 18 18 20 22 24 25 27 28 29 29 29 28 29 28 28 27 27 29 29 26 31 37 36 36 37 36 36 35 32 28 26 29 32
18 18 19 18 18 18 18 18 18 18 17 16 16 15 15 15 14 13 13 13 12 12 11 10 9 8 7 6 6 5 4 3 2 2 1 2 2 3 3 4 5 5 6 7 8 9 11 14 16 16 15 16 17 18 20 23 24 25 26 28 30 29 28 29 30 29 28 27 28 31 29 25 30 36 35 35 35 35 36 34 31 29 31 34 35
19 19 19 19 19 19 19 19 19 18 18 17 17 16 16 15 15 14 14 13 13 12 11 10 9 8 7 7 6 5 4 3 2 2 2 1 2 2 3 4 5 6 7 8 8 9 11 12 14 14 15 16 17 18 20 22 24 24 25 28 30 31 29 29 30 30 29 28 29 32 29 25 30 35 34 34 33 34 36 33 31 33 36 38 38
21 21 20 20 20 20 19 20 19 19 19 18 17 17 16 16 15 15 14 14 13 12 12 10 9 8 7 7 6 5 5 5 4 5 4 2 0 2 3 4 5 6 7 8 8 10 11 12 13 13 14 15 16 18 21 22 22 23 25 26 29 31 31 30 31 30 29 29 31 32 28 26 30 33 32 31 31 33 34 31 31 36 38 40 42
22 21 21 21 20 20 20 20 20 20 20 19 19 18 17 17 16 15 15 14 13 13 12 10 10 9 7 7 7 8 8 7 7 7 7 6 3 0 2 2 3 5 6 7 8 9 10 12 12 12 14 15 15 18 21 21 21 24 26 26 26 29 30 31 31 29 27 30 33 31 28 29 31 31 30 29 30 32 31 30 32 36 38 41 44
21 20 19 20 19 19 19 19 20 20 20 19 19 19 19 18 17 16 16 15 14 14 12 11 10 9 8 8 8 9 8 7 6 5 7 7 5 2 0 1 1 3 4 5 7 8 10 12 12 12 14 15 15 19 21 20 21 25 27 27 26 27 29 30 30 28 26 30 33 31 29 32 32 30 28 28 29 30 30 30 33 35 38 42 45
20 19 19 19 19 18 18 19 19 20 19 19 19 20 19 18 18 17 16 15 15 14 13 12 11 9 9 8 7 7 7 7 6 6 6 6 5 4 4 5 5 4 4 4 5 7 9 11 11 12 14 14 16 18 19 20 22 25 27 27 27 28 28 26 25 27 28 29 30 29 30 33 33 31 28 27 29 30 29 31 34 36 39 44 46
20 20 20 20 20 19 19 19 19 20 19 18 20 20 18 18 17 17 16 16 14 14 13 13 12 11 9 8 7 8 9 7 6 6 6 6 5 5 5 6 6 7 7 6 5 6 7 9 10 12 13 14 17 18 18 20 23 24 26 26 26 27 26 22 20 24 30 31 28 27 29 33 34 32 28 27 29 30 30 32 34 37 41 46 48
21 21 20 21 20 20 20 20 20 20 18 18 21 22 19 18 18 16 16 16 14 14 13 12 12 11 9 8 8 7 6 6 5 4 3 2 2 3 4 4 4 5 6 7 7 6 7 8 10 12 13 14 17 18 18 20 22 23 25 25 26 27 26 23 21 24 32 33 27 24 27 33 35 32 29 28 30 31 32 34 35 37 43 48 49
21 20 20 20 20 20 21 21 20 20 18 19 22 23 21 20 19 17 16 15 15 14 14 13 12 12 11 9 8 7 7 8 7 6 5 5 5 5 6 6 6 6 6 6 7 8 8 9 10 12 13 14 17 18 19 21 22 23 23 24 27 27 26 25 26 28 32 32 25 21 24 32 36 33 30 30 32 34 35 35 35 38 44 50 51
22 21 20 20 20 19 19 20 20 20 19 19 21 24 24 21 19 18 15 14 15 13 13 14 13 13 13 10 10 10 9 9 9 9 9 8 8 9 9 9 9 8 7 7 6 8 9 9 10 12 13 14 16 19 20 21 22 23 24 25 27 28 27 27 28 29 30 29 24 20 22 30 35 34 32 32 33 36 37 36 35 38 45 51 52
23 21 21 20 20 19 18 18 19 19 19 19 20 23 25 22 20 17 12 12 14 13 13 14 13 13 13 12 12 11 10 9 9 11 11 10 9 8 8 9 10 10 10 9 6 7 9 10 11 13 14 15 17 19 19 20 20 21 23 24 24 25 25 26 27 26 28 29 25 20 21 28 33 33 33 35 35 36 37 35 34 38 46 52 53
22 21 21 21 20 20 19 18 18 18 18 18 18 20 24 24 22 18 11 9 12 13 11 12 12 11 12 12 11 11 11 11 12 12 12 12 10 8 7 8 8 10 10 8 6 9 11 12 13 13 14 17 19 19 19 19 18 19 20 20 21 22 23 22 22 24 27 28 26 24 24 28 31 31 32 36 38 36 35 35 35 38 46 53 54
22 21 22 21 21 23 23 19 17 17 17 16 14 16 23 26 24 20 13 9 11 12 11 12 12 11 12 12 10 10 12 14 13 11 10 12 11 7 8 8 8 9 8 6 7 12 13 13 13 14 16 18 18 18 17 16 15 17 17 18 21 23 21 18 17 22 27 26 26 27 26 27 31 30 29 35 38 34 32 36 38 38 44 54 55
22 22 22 22 22 25 24 19 16 18 20 17 14 15 21 25 24 21 15 10 10 12 12 13 14 12 12 14 13 12 12 14 13 11 9 11 10 6 7 8 9 9 6 6 10 13 12 11 12 14 16 17 17 16 16 15 16 17 18 21 23 22 20 18 17 21 23 23 27 29 26 26 30 29 28 31 33 33 33 36 38 39 44 54 56
23 23 23 24 24 25 24 21 18 19 22 23 20 17 20 24 26 24 17 10 10 13 13 14 15 14 14 15 16 14 12 13 13 11 10 11 11 6 5 6 9 9 6 8 13 13 12 12 14 16 17 16 15 15 15 15 17 19 21 23 23 21 19 20 21 19 15 18 28 31 26 26 27 28 29 25 20 26 36 38 37 38 42 51 55
Wind_Direction
189 187 185 179 177 175 194 193 159 160 176 177 170 184 163 136 182 46 358 146 137 82 42 52 72 71 64 95 103 103 114 119 125 118 79 66 62 54 44 37 31 27 25 27 29 30 28 26 25 22 18 12 6 3 0 1 359 358 357 353 350 353 357 358 356 351 347 346 346 347 347 346 342 342 350 350 345 343 344 343 340 338 330 316 306
184 167 168 174 169 160 164 165 154 148 157 164 125 136 115 106 138 103 88 125 129 134 112 91 94 83 84 87 82 86 84 85 113 130 81 65 61 58 47 33 28 24 22 20 17 20 23 23 26 26 23 21 19 13 8 9 10 9 8 6 2 2 5 3 0 357 352 347 348 348 345 345 340 338 344 347 344 343 346 347 344 343 342 335 321
179 162 168 173 166 160 160 156 155 151 149 151 112 120 109 91 92 76 80 83 105 122 117 117 111 96 89 86 84 85 80 72 83 101 86 69 62 61 50 34 27 21 18 15 12 13 16 19 20 21 21 20 24 22 15 14 18 19 18 16 12 12 14 12 8 5 0 355 355 354 350 349 348 343 345 347 344 341 342 346 347 346 348 348 340
171 161 170 172 169 162 157 150 146 148 143 140 126 125 113 93 81 72 75 66 76 95 101 100 89 88 90 86 87 84 83 79 75 80 83 80 68 55 47 38 29 22 19 14 13 16 18 22 23 23 22 21 26 29 25 21 24 27 24 23 20 18 18 16 13 9 7 5 0 356 355 357 357 352 349 349 346 342 341 341 343 344 343 346 347
161 153 163 161 156 147 145 146 142 140 133 127 122 118 112 110 109 101 105 95 86 96 109 106 91 84 82 82 87 85 82 78 72 72 74 79 73 59 50 44 34 26 19 11 12 20 25 30 30 27 25 23 29 33 31 28 27 29 27 26 23 20 19 15 14 10 7 8 2 358 0 1 359 355 351 350 347 345 342 337 335 336 333 334 338
155 149 158 148 142 146 143 135 130 131 132 122 108 107 106 103 110 111 121 118 113 113 105 98 92 84 77 78 82 82 83 78 72 67 64 69 69 64 56 47 42 34 22 10 9 16 26 34 31 26 23 23 31 34 34 31 28 28 25 24 21 18 17 14 12 9 6 6 2 360 1 0 358 356 354 354 352 349 348 343 335 329 324 324 332
144 143 159 147 140 146 133 124 122 120 126 118 108 116 113 100 103 107 118 136 128 110 104 96 89 86 83 82 79 79 83 81 78 75 68 65 55 48 45 41 43 43 35 20 13 12 18 27 26 20 17 18 27 32 33 31 27 25 23 21 18 15 14 12 9 7 4 3 1 358 358 359 357 355 354 355 354 351 350 350 343 336 334 333 336
140 145 158 146 138 134 117 115 117 115 126 126 124 126 119 119 143 121 111 154 132 110 106 102 92 91 90 88 86 84 83 79 77 75 76 72 59 49 50 50 45 43 44 36 28 21 16 17 17 17 10 9 19 23 26 29 24 21 20 18 16 12 10 7 4 3 1 360 358 356 354 356 356 353 352 353 351 349 348 350 346 342 343 342 339
146 141 135 138 137 134 121 119 118 123 128 118 113 110 107 104 83 152 132 126 122 110 106 106 100 99 98 92 90 87 85 81 76 75 79 72 60 49 46 52 56 48 41 39 39 36 29 18 11 12 5 0 11 15 17 24 20 16 19 17 13 9 5 2 359 357 356 355 355 354 352 351 352 350 349 349 347 346 346 347 345 343 343 344 340
150 134 123 141 147 141 133 129 123 128 119 84 95 143 157 98 37 154 145 89 119 117 111 111 107 107 104 98 95 94 90 85 82 79 75 69 61 47 33 31 45 51 45 38 39 38 35 30 18 9 1 357 6 8 9 16 14 12 17 15 10 5 1 359 355 354 352 352 352 351 350 349 349 349 347 345 343 343 343 343 342 342 342 342 342
143 127 123 146 150 140 134 129 108 120 109 54 81 116 162 131 58 116 113 86 121 126 122 120 114 110 108 101 98 101 100 90 85 79 70 67 64 60 44 20 15 25 31 32 36 35 28 28 24 14 6 1 5 3 4 6 2 6 12 11 7 2 359 356 353 352 350 349 349 348 349 348 348 347 346 344 341 340 340 339 338 339 339 339 340
130 122 133 154 149 139 143 137 92 119 116 36 71 98 112 127 107 107 102 95 115 124 128 131 120 113 109 102 98 95 101 99 93 88 77 75 73 83 84 47 18 3 4 15 23 29 24 20 19 17 17 15 11 4 2 356 346 352 2 4 5 3 360 356 351 349 349 348 347 346 346 347 347 346 345 343 341 338 336 334 333 334 335 336 337
125 129 147 151 146 138 145 147 101 121 132 80 78 101 102 120 117 116 118 108 114 123 136 138 125 118 109 100 98 86 87 94 95 95 84 81 76 70 98 101 70 10 354 0 9 19 20 10 12 17 20 23 18 2 357 345 331 340 350 350 354 0 1 357 352 348 348 347 346 345 344 345 345 344 343 342 340 336 333 331 330 331 332 332 332
128 138 145 139 140 133 132 141 93 91 156 123 88 102 102 113 118 123 132 129 134 143 152 144 136 144 142 119 103 93 87 85 88 95 90 88 74 47 46 69 73 40 11 7 2 8 3 352 359 6 9 14 12 354 349 339 327 335 340 335 338 349 356 355 352 349 347 347 346 346 344 343 343 341 341 339 338 335 332 330 329 330 331 330 328
138 140 139 130 131 125 120 130 96 65 155 150 108 109 118 124 133 144 149 143 145 157 170 166 170 167 156 146 140 126 102 97 101 107 109 105 92 61 38 29 32 24 15 6 352 353 348 333 342 351 352 356 357 346 341 335 331 333 335 331 327 334 345 350 350 347 346 346 344 344 342 340 339 338 337 336 335 333 331 331 330 331 330 327 325
140 137 136 131 123 120 130 149 149 109 114 132 128 122 130 131 137 149 161 158 147 152 173 179 236 173 162 199 166 150 159 159 148 144 146 127 109 76 48 40 5 6 7 1 356 350 347 332 331 344 343 342 346 339 334 334 333 332 332 329 322 326 337 344 346 345 344 343 341 341 341 340 339 336 334 333 332 332 331 330 329 329 328 325 324
133 129 128 136 129 125 150 162 160 140 128 140 136 127 132 134 137 146 158 163 150 148 168 172 177 149 26 347 154 163 143 152 149 166 192 177 150 115 35 46 333 347 347 354 356 339 351 354 335 337 338 336 338 332 331 335 335 331 330 328 324 327 336 340 342 342 342 341 340 339 341 342 341 339 337 334 332 331 330 328 326 326 325 324 323
145 145 135 136 138 141 156 156 154 144 135 137 129 122 123 122 131 136 122 123 135 146 162 164 163 109 38 46 89 9 103 155 158 161 186 177 160 172 89 76 341 330 310 331 346 325 344 4 348 333 334 335 334 330 331 334 332 328 327 327 328 331 337 339 340 339 339 339 338 338 340 341 341 341 341 338 335 331 328 325 323 323 322 321 319
152 155 154 153 155 163 167 155 151 143 132 129 129 134 132 123 126 129 119 115 128 143 149 150 137 96 63 72 84 47 96 144 157 117 163 197 201 195 181 165 37 73 88 318 315 311 323 345 346 332 330 333 332 330 333 334 330 326 326 328 329 333 338 339 337 336 338 338 337 337 337 338 338 339 339 340 338 333 328 324 320 319 317 316 316
153 154 166 174 171 170 164 147 138 136 134 133 131 138 141 133 129 131 128 123 122 126 127 125 116 98 76 73 82 69 78 79 41 42 139 184 203 203 201 219 253 208 45 356 308 291 293 312 333 328 329 333 333 336 336 334 329 327 329 328 329 336 339 339 336 336 338 339 338 336 334 335 337 337 337 338 337 335 331 325 321 318 315 314 313
144 142 137 141 145 143 139 133 131 134 139 138 132 130 135 136 133 134 132 123 116 114 110 101 94 92 82 72 79 80 75 55 38 26 20 97 188 190 190 211 228 229 273 359 340 288 271 295 324 324 332 336 339 341 336 333 334 333 329 326 332 339 340 339 336 336 339 342 342 339 333 333 335 335 335 335 335 336 333 327 322 320 317 314 312
142 141 132 131 136 136 136 137 143 143 136 135 134 131 129 132 132 132 133 127 120 115 109 103 94 85 76 72 67 58 57 46 32 21 9 5 348 161 179 197 204 204 225 2 345 283 265 305 334 331 338 342 344 341 336 337 340 333 324 326 336 340 339 340 337 336 342 344 344 341 334 332 334 333 332 334 335 336 335 332 327 323 321 317 312
150 146 139 138 139 140 143 145 147 140 130 128 130 130 126 126 128 127 128 125 119 114 110 105 98 88 79 75 69 58 57 50 32 19 11 7 350 328 222 231 193 182 193 48 2 256 308 15 352 353 351 350 347 340 338 340 338 331 327 333 339 340 340 340 337 339 344 345 343 341 338 335 335 333 332 333 334 336 337 335 330 325 321 318 315
145 142 136 139 144 144 142 142 142 134 129 126 122 122 120 118 119 117 116 114 111 111 106 101 97 90 84 78 75 71 66 57 43 31 17 14 3 334 333 339 321 170 173 184 208 187 45 26 8 12 359 351 347 340 342 341 337 336 335 338 340 341 341 339 339 341 342 343 342 340 341 343 342 339 335 333 334 337 337 335 331 326 322 320 318
146 146 144 149 150 145 143 142 140 134 130 126 121 121 120 117 115 113 114 114 114 114 107 101 99 94 90 84 82 80 73 64 55 46 29 28 24 356 342 336 325 202 166 170 179 85 38 18 11 16 358 349 346 343 345 344 342 341 337 340 343 343 343 341 342 341 340 343 343 341 345 349 348 344 340 339 338 336 336 335 332 328 324 322 320
156 156 153 154 150 146 147 143 139 136 132 128 124 122 122 121 120 118 117 115 115 114 108 104 101 98 95 89 85 81 75 74 69 58 46 40 31 11 350 333 331 350 18 102 88 55 32 9 4 10 357 349 347 345 346 347 346 340 338 343 346 345 345 343 341 340 340 344 344 341 344 346 347 345 344 345 340 336 337 338 335 331 327 323 321
164 162 155 153 152 151 147 141 139 138 134 130 125 123 126 128 126 123 119 117 118 114 108 105 102 98 96 93 92 89 79 77 80 73 62 51 35 23 11 348 345 4 4 38 52 41 26 9 356 359 355 348 347 347 347 349 346 339 340 345 346 345 345 342 341 340 340 341 340 339 342 345 347 345 345 344 339 337 338 337 336 333 329 324 319
164 161 157 158 156 150 145 143 142 139 134 131 130 130 134 133 130 125 119 117 118 114 110 107 103 100 99 98 97 93 87 85 84 77 68 62 45 33 31 19 4 350 351 22 37 25 13 3 351 348 349 347 345 346 348 348 346 342 342 345 345 344 343 342 344 344 340 338 337 340 344 347 347 346 346 345 343 342 339 336 335 334 331 328 324
160 158 159 158 154 148 146 145 143 140 136 134 135 135 136 134 129 125 121 119 117 113 110 107 104 103 100 103 101 91 89 91 89 83 72 62 49 41 40 28 14 3 348 351 24 22 2 354 350 342 342 345 343 344 347 347 346 344 343 343 343 343 342 343 345 344 340 338 339 344 345 345 347 348 348 346 345 344 340 336 335 333 331 330 329
158 158 158 154 152 151 148 145 144 142 138 137 135 133 134 132 130 128 127 126 121 115 114 112 111 111 107 110 110 100 91 86 82 79 74 67 53 43 41 36 28 26 5 327 347 23 358 346 344 339 338 342 342 343 346 345 345 345 343 341 341 342 343 344 343 342 341 339 339 342 342 344 348 349 348 346 346 344 340 337 337 337 334 329 328
158 159 158 154 153 153 149 147 145 144 140 138 135 136 138 136 135 135 132 129 126 123 123 121 119 120 116 111 107 99 90 85 80 71 69 70 63 46 36 36 33 26 7 339 317 343 344 340 338 338 338 340 341 343 344 343 344 344 344 342 340 341 343 342 341 341 341 339 338 339 341 346 349 349 348 348 347 346 345 343 342 340 337 332 329
161 162 159 157 156 154 153 151 148 146 143 141 140 142 143 140 140 140 137 136 133 130 128 126 128 130 127 121 115 107 96 89 78 67 61 55 52 47 34 28 29 22 5 351 322 311 327 335 335 335 338 339 341 343 342 341 342 342 343 343 340 340 342 341 340 340 340 338 336 336 341 348 350 350 350 350 349 348 349 350 348 345 341 338 336
164 163 160 159 158 157 156 154 152 149 146 145 145 146 145 145 147 146 144 144 141 137 135 134 137 139 134 128 125 122 120 113 85 74 74 47 39 40 31 25 21 15 2 352 333 313 319 330 333 334 338 340 340 342 342 341 340 341 342 343 341 341 341 340 339 339 339 336 335 336 338 345 350 351 351 352 352 352 352 352 350 348 345 343 342
165 163 161 160 159 159 157 156 154 152 150 150 149 149 150 153 152 151 152 152 148 145 143 142 144 142 138 134 131 126 119 111 93 87 82 50 49 41 20 15 5 2 358 348 331 312 315 327 332 334 338 341 340 342 343 340 338 339 339 341 342 342 341 341 339 338 337 335 337 337 334 340 350 352 351 353 355 355 354 353 352 350 348 348 349
164 163 163 162 161 160 158 157 156 154 153 154 153 155 159 159 156 156 159 159 154 150 149 150 151 148 143 140 138 133 118 103 86 81 76 49 48 30 358 357 353 352 351 341 326 316 318 323 329 333 337 340 340 340 341 338 337 337 337 338 341 342 343 342 341 338 336 336 339 338 334 337 348 352 352 354 355 355 354 355 354 352 351 354 352
163 164 164 163 162 162 160 160 158 158 159 158 158 162 162 160 159 160 162 161 155 153 154 154 153 153 154 151 147 140 128 123 105 83 76 47 36 14 356 358 355 350 347 338 329 326 322 320 325 331 335 337 337 337 338 336 336 337 337 337 339 342 344 343 342 339 337 337 339 339 336 337 347 352 354 354 354 355 356 356 356 355 355 354 350
164 165 165 165 165 165 164 163 162 162 163 162 163 164 164 164 164 163 163 162 157 156 158 156 156 159 160 158 156 149 143 147 141 125 102 55 35 12 358 360 356 348 341 336 332 328 322 318 322 328 334 336 335 335 337 336 336 337 338 337 339 342 343 343 342 341 339 338 339 341 339 340 351 355 354 353 355 356 357 358 359 358 353 350 347
166 167 168 169 169 169 168 167 166 166 166 166 166 166 166 167 166 164 164 163 160 159 158 157 159 161 162 162 159 155 157 165 161 143 119 75 35 6 357 354 351 347 343 340 335 328 326 323 324 329 334 336 334 334 336 337 335 337 338 338 339 342 341 340 341 340 341 341 340 342 342 344 352 355 353 354 357 357 357 359 358 354 349 346 344
170 171 172 173 173 172 171 170 170 169 168 168 168 168 169 168 166 166 167 164 161 159 158 158 159 162 165 163 156 157 160 168 178 172 160 149 63 353 346 349 350 347 343 341 336 334 336 332 328 332 335 334 334 334 334 335 336 338 341 338 336 338 339 338 338 338 340 341 340 341 344 346 350 353 353 355 357 356 356 356 354 351 348 345 343
175 175 176 176 176 175 174 173 172 170 170 170 170 170 169 169 168 167 167 164 161 160 159 160 160 161 164 163 169 181 184 188 196 191 178 166 148 130 316 337 357 352 346 343 341 343 342 334 330 336 336 331 334 335 333 337 341 340 341 338 331 331 335 335 336 336 337 338 339 341 346 348 348 351 354 356 357 356 356 355 352 351 349 346 343
177 177 178 177 177 177 176 175 173 172 172 172 173 172 171 170 168 168 169 166 163 163 162 160 161 162 166 177 192 198 196 193 189 178 174 171 163 167 193 74 45 9 354 350 350 348 342 334 333 337 334 330 336 338 335 340 343 338 337 335 329 328 331 331 332 335 336 337 339 341 346 350 349 349 351 354 355 355 356 356 353 350 348 347 345
178 178 179 178 178 179 177 175 174 174 175 177 176 175 173 170 168 169 170 169 167 167 163 163 164 166 176 195 203 190 178 174 165 151 149 152 147 129 95 75 64 54 35 10 359 351 342 335 332 334 332 330 336 338 335 337 338 334 333 332 329 329 330 327 327 333 338 339 340 340 344 350 351 346 346 350 350 351 353 354 352 349 348 348 347
179 179 180 179 179 181 178 176 176 175 179 182 179 175 174 171 169 171 172 169 170 170 169 170 169 170 185 203 191 169 160 152 144 136 129 121 109 92 75 55 43 40 35 28 17 356 342 332 326 328 330 329 331 333 333 333 332 330 330 330 330 329 328 325 323 330 338 340 339 337 341 349 351 346 342 344 347 347 348 348 348 349 349 350 349
179 182 182 180 182 182 179 178 177 177 183 187 180 176 174 171 171 174 173 171 173 175 175 176 176 179 191 199 185 176 179 175 165 156 143 114 41 18 1 352 358 2 8 16 15 2 350 336 324 321 324 327 327 326 329 328 325 325 326 327 329 327 322 320 320 326 335 339 339 339 340 345 348 345 341 342 343 343 343 344 345 347 348 350 350
179 183 184 183 184 184 182 179 177 178 186 189 184 180 177 174 174 172 172 175 177 179 182 182 184 187 191 194 192 200 221 223 222 240 264 279 292 301 302 298 299 308 319 340 351 350 344 334 321 315 318 320 317 320 327 326 320 319 320 321 325 322 318 321 323 326 334 339 340 343 341 341 344 342 339 342 342 340 341 341 342 345 348 350 350
180 183 184 185 185 186 183 178 177 181 187 188 187 186 182 178 176 171 172 179 181 182 187 189 191 193 192 195 197 207 228 227 221 238 251 260 274 280 284 286 284 286 288 296 318 331 329 324 316 311 314 316 312 316 325 325 317 314 314 315 319 318 318 324 327 329 337 339 339 343 342 340 342 341 337 340 342 339 339 340 341 345 349 350 351
181 182 183 184 184 184 182 179 179 184 188 187 187 189 187 183 179 176 170 175 184 190 192 193 196 196 195 200 205 214 226 220 218 232 232 230 245 259 272 283 284 283 282 280 295 320 322 320 316 313 316 318 314 313 318 320 318 319 321 322 322 320 320 327 330 333 339 339 339 344 340 336 341 339 335 338 340 338 339 341 342 346 350 351 351
180 182 184 183 183 182 177 177 182 185 185 185 185 191 192 187 184 185 175 165 184 194 193 196 201 198 198 204 211 215 215 217 228 239 238 235 235 241 267 282 282 285 286 280 292 310 314 317 319 316 313 314 313 312 314 316 318 325 331 335 335 330 327 329 331 334 338 339 342 345 337 332 338 338 334 337 339 337 338 342 343 346 350 351 352
180 182 182 182 183 180 174 174 184 181 173 177 187 196 197 190 188 193 184 165 181 193 195 201 206 205 205 208 212 214 216 225 236 242 243 238 229 240 282 285 278 285 284 272 289 302 308 316 319 311 306 312 319 322 323 326 330 338 342 341 339 336 333 333 333 332 334 336 341 341 334 330 335 337 336 337 337 336 339 342 343 345 350 352 353
180 180 182 182 179 175 173 177 184 174 167 179 192 197 196 192 193 196 186 167 182 194 197 202 206 208 210 209 212 216 219 228 237 240 240 226 216 247 297 289 279 286 282 277 292 301 310 319 319 310 309 319 331 335 339 346 349 349 346 340 337 336 335 335 331 328 330 333 338 339 334 330 335 340 342 339 336 338 340 341 343 346 350 353 355
178 177 179 177 171 172 177 182 181 176 181 191 192 188 190 192 197 200 192 182 199 203 201 201 203 209 211 209 213 219 223 226 230 237 238 223 218 243 289 292 293 298 289 289 298 304 311 316 314 313 316 326 336 340 345 350 347 343 340 339 338 338 338 335 331 330 329 330 336 340 336 331 336 343 346 343 335 337 340 341 344 346 349 354 356